Terminal Aerodrome Forecast
Issued by NWS Charleston, WV

Current Version | Previous Version | Text Only | Print | Product List | Glossary Off
Versions: 1 2 3 4 5 6 7 8 9 10 11 12 13 14 15 16 17 18 19 20 21 22 23 24 25

000
FTUS41 KRLX 212300
TAFBKW
TAF
KBKW 212335Z 2200/2224 15006KT P6SM OVC090
     FM220500 VRB03KT P6SM SCT080
     FM221200 13004KT P6SM SCT050
     FM221800 17004KT P6SM VCTS BKN045CB=

USA.gov is the U.S. government's official web portal to all federal, state and local government web resources and services.